Tracking 19794 objects as of 21-Jul-2019
HD Live streaming from Space Station
objects crossing your sky now

COSMOS 1275 DEB

Track COSMOS 1275 DEB now!
10-day predictions


NORAD ID: 15768
Int'l Code: 1981-053KG
Perigee: 846.8 km
Apogee: 927.0 km
Inclination: 83.1 °
Period: 102.6 minutes
Semi major axis: 7257 km
RCS: 0.0155 m2 (small)
Launch date: June 4, 1981
Source: Commonwealth of Independent States (former USSR) (CIS)
Launch site: PLESETSK MISSILE AND SPACE COMPLEX (PKMTR)

Note: This is SATELLITE DEBRIS
aabbcc
Your satellite tracking list
Your tracking list is empty




NASA's NSSDC Master Catalog

Two Line Element Set (TLE):
1 15768U 81053KD  19201.87540366 +.00000598 +00000-0 +36307-3 0  9990
2 15768 083.0751 345.7927 0055266 228.2124 258.6030 14.04060129738318
Source of the keplerian elements: AFSPC